Ord, NE

8:38 PM CST on November 21, 2017 (GMT -0600)
Sharp

Weather History for KODX - March, 2013

Change the Weather History Date:

Tuesday, March 12, 2013

  Actual Average Record
Temperature  
Mean Temperature 28 °F 36 °F  
Max Temperature 39 °F 49 °F 78 °F (2007)
Min Temperature 16 °F 23 °F 8 °F (2009)
Degree Days  
Heating Degree Days 37 29  
Month to date heating degree days 410 374  
Since 1 July heating degree days 5379 5391  
Cooling Degree Days 0 0  
Month to date cooling degree days 0 0  
Year to date cooling degree days 0 0  
Moisture  
Dew Point 16 °F    
Average Humidity 60    
Maximum Humidity 92    
Minimum Humidity 27    
Precipitation  
Precipitation 0.00 in 0.02 in 0.57 in (1961)
Month to date precipitation 0.23 0.25  
Year to date precipitation 1.85 1.06  
Sea Level Pressure  
Sea Level Pressure 30.26 in    
Wind  
Wind Speed 16 mph (NW)    
Max Wind Speed 33 mph    
Max Gust Speed 41 mph    
Visibility 10 miles    
Events      
T = Trace of Precipitation, MM = Missing Value Source: NWS Daily Summary

Daily Weather History Graph

Daily Weather History Graph

Search for Another Location

Airport or City:

Trip Planner

Search our weather history database for the weather conditions in past years. The results will help you decide how hot, cold, wet, or windy it might be!

Date:

Astronomy

Mar. 12, 2013 Rise Set
Actual Time 7:52 AM CDT 7:39 PM CDT
Civil Twilight 7:24 AM CDT 8:07 PM CDT
Nautical Twilight 6:52 AM CDT 8:39 PM CDT
Astronomical Twilight 6:19 AM CDT 9:11 PM CDT
Moon 7:58 AM CDT (3/12) 8:57 PM CDT (3/12)
Length of Visible Light 12h 42m
Length of Day
11h 47m
New Moon, 1% of the Moon is Illuminated
Mar 12
New Moon
Mar 19
First Quarter
Mar 27
Full
Apr 2
Last Quarter
Apr 10
New

Hourly Weather History & Observations

Time (CDT) Temp. Windchill Dew Point Humidity Pressure Visibility Wind Dir Wind Speed Gust Speed Precip Events Conditions
12:53 AM 27.0 °F - 24.1 °F 89% 30.12 in 10.0 mi Calm Calm - N/A   Clear
1:53 AM 26.1 °F 20.5 °F 21.9 °F 84% 30.12 in 10.0 mi NNW 4.6 mph - N/A   Partly Cloudy
2:53 AM 26.1 °F 21.9 °F 21.9 °F 84% 30.13 in 10.0 mi NW 3.5 mph - N/A   Scattered Clouds
3:53 AM 30.9 °F 23.5 °F 23.0 °F 72% 30.12 in 10.0 mi NW 8.1 mph - N/A   Mostly Cloudy
4:53 AM 30.9 °F 21.2 °F 21.0 °F 67% 30.13 in 10.0 mi WNW 12.7 mph - N/A   Clear
5:53 AM 28.9 °F 16.9 °F 19.9 °F 69% 30.16 in 10.0 mi NW 17.3 mph 23.0 mph N/A   Clear
6:53 AM 28.0 °F 17.0 °F 19.0 °F 69% 30.19 in 10.0 mi NW 13.8 mph - N/A   Clear
7:53 AM 28.0 °F 13.0 °F 18.0 °F 66% 30.21 in 10.0 mi NW 26.5 mph 35.7 mph N/A   Clear
8:53 AM 28.0 °F 13.0 °F 17.1 °F 63% 30.23 in 10.0 mi NW 26.5 mph 38.0 mph N/A   Clear
9:53 AM 28.9 °F 13.5 °F 17.1 °F 61% 30.26 in 10.0 mi NW 29.9 mph 38.0 mph N/A   Clear
10:53 AM 28.9 °F 14.8 °F 16.0 °F 58% 30.30 in 10.0 mi NW 24.2 mph 33.4 mph N/A   Overcast
11:53 AM 34.0 °F 21.0 °F 18.0 °F 52% 30.30 in 10.0 mi NNW 26.5 mph 34.5 mph N/A   Scattered Clouds
12:53 PM 35.1 °F 22.7 °F 17.1 °F 48% 30.31 in 10.0 mi NNW 25.3 mph 32.2 mph N/A   Mostly Cloudy
1:53 PM 37.0 °F 25.4 °F 18.0 °F 46% 30.30 in 10.0 mi NW 25.3 mph 33.4 mph N/A   Scattered Clouds
2:53 PM 37.0 °F 25.4 °F 17.1 °F 44% 30.30 in 10.0 mi NW 25.3 mph 33.4 mph N/A   Clear
3:53 PM 37.9 °F 26.3 °F 12.0 °F 35% 30.29 in 10.0 mi NW 26.5 mph 34.5 mph N/A   Clear
4:53 PM 37.9 °F 26.8 °F 9.0 °F 30% 30.29 in 10.0 mi NW 24.2 mph 31.1 mph N/A   Clear
5:53 PM 37.0 °F 25.9 °F 7.0 °F 29% 30.30 in 10.0 mi NNW 23.0 mph 28.8 mph N/A   Clear
6:53 PM 35.1 °F 25.2 °F 9.0 °F 34% 30.32 in 10.0 mi NW 16.1 mph 24.2 mph N/A   Clear
7:53 PM 30.0 °F 23.2 °F 10.9 °F 45% 30.33 in 10.0 mi North 6.9 mph - N/A   Clear
8:53 PM 24.1 °F 17.0 °F 12.0 °F 60% 30.35 in 10.0 mi NW 5.8 mph - N/A   Clear
9:53 PM 19.9 °F - 12.9 °F 74% 30.38 in 10.0 mi Calm Calm - N/A   Clear
10:53 PM 19.0 °F 12.3 °F 12.0 °F 74% 30.39 in 10.0 mi WSW 4.6 mph - N/A   Clear
11:53 PM 19.0 °F - 12.0 °F 74% 30.40 in 10.0 mi Calm Calm - N/A   Clear